Tracking 19286 objects as of 18-Nov-2018
HD Live streaming from Space Station
objects crossing your sky now

SUPERBIRD A

Track SUPERBIRD A now!
SUPERBIRD A is classified as:


NORAD ID: 20040
Int'l Code: 1989-041A
Perigee: 35,901.0 km
Apogee: 35,983.0 km
Inclination: 15.0 °
Period: 1,443.7 minutes
Semi major axis: 42312 km
RCS: 4.409 m2 (large)
Launch date: June 5, 1989
Source: Japan (JPN)
Launch site: FRENCH GUIANA (FRGUI)
aabbcc
Your satellite tracking list
Your tracking list is empty




NASA's NSSDC Master Catalog

Two Line Element Set (TLE):
1 20040U 89041A   18321.25014194 +.00000069 +00000-0 +00000-0 0  9994
2 20040 014.9746 355.1532 0009682 320.9416 218.5942 00.99745288106845
Source of the keplerian elements: AFSPC